Welcome to the New NWS' Forecast!
Most changes are behind the scenes, but click here for differences you might notice.

Regional Weather Roundup (RWR)

Issued by Melbourne, FL (MLB)

                            
506 
ASUS42 KMLB 201207
RWRMLB
HOURLY WEATHER ROUNDUP AROUND FLORIDA
NATIONAL WEATHER SERVICE OFFICE MELBOURNE FL
800 AM EDT MON AUG 20 2018
  
CITY           SKY/WX    TMP DP  RH WIND       PRES   REMARKS
MELBOURNE      FAIR      79  73  82 CALM      30.09R                  
FORT PIERCE    FAIR      76  75  97 CALM      30.09R                  
ORLANDO INTL   FAIR      76  74  93 SE5       30.10R                  
DAYTONA BEACH  FAIR      75  75 100 W3        30.10R                  
VERO BEACH     FAIR      75  73  93 CALM      30.09R                  
$$
...ELSEWHERE ACROSS CENTRAL FLORIDA...
  
CITY           SKY/WX    TMP DP  RH WIND       PRES   REMARKS
PATRICK AFB    FAIR      79  77  94 CALM      30.09R                  
KSC            FAIR      76  73  91 CALM      30.09R                  
CAPE CANAVERAL FAIR      74  72  91 CALM      30.09R                  
TITUSVILLE     SUNNY     73  72  94 S7        30.10R                  
ORLANDO EXEC   FAIR      78  74  87 CALM      30.10R                  
LEESBURG       FAIR      77  76  96 CALM      30.11R                  
SANFORD        FAIR      76  73  91 CALM      30.09R                  
DELAND         FAIR      75  72  88 CALM      30.10R                  
NEW SMYRNA BCH SUNNY     73  72  94 CALM      30.11R                  
ORMOND BEACH   SUNNY     73  73 100 CALM      30.10R                  
WINTER HAVEN   FAIR      77  74  90 SE5       30.11R                  
KISSIMMEE      FAIR      77  74  90 SE3       30.11R                  
OKEECHOBEE       N/A     73  72  94 CALM      30.08S                  
TAMPA          FAIR      80  73  79 CALM      30.09R                  
$$
...NORTHERN FLORIDA...
  
CITY           SKY/WX    TMP DP  RH WIND       PRES   REMARKS
ST AUGUSTINE   FAIR      74  72  93 SW6       30.11R                  
OCALA          FAIR      74  72  93 CALM      30.11R                  
GAINESVILLE    FAIR      76  72  87 CALM      30.12R                  
JACKSONVILLE   FAIR      75  74  96 CALM      30.09R                  
TALLAHASSEE    FAIR      74  73  97 CALM      30.07R                  
$$
...ALONG THE SOUTHEAST COAST TO THE KEYS...
  
CITY           SKY/WX    TMP DP  RH WIND       PRES   REMARKS
STUART         MOSUNNY   81  77  89 CALM      30.09R                  
WEST PALM BCH  FAIR      84  77  79 S5        30.08R                  
MIAMI          FAIR      83  78  85 SE6       30.07R                  
KEY WEST       MOSUNNY   82  75  78 E9        30.04R                  
$$
...MARINE REPORTS...
  
STATION/POSITION TIME  TEMP    WIND        PRES    WAVE   SWELL
                       AIR SEA DIR/SP/G            HT/PER HT/PER
                 (UTC) (F)     (DEG/KT/KT) (MB)    (FT/S) (FT/S)
ST AUGUSTINE FP  1200   76 78  240/  6/  7 1019.5R
20NM E CAPE CANA 1150   81     320/  6/  8 1019.2R   1/ 8   2/ 8
TRIDENT PIER     1142   76 81   40/  2/  2 1020.5R
SEBASTIAN INLET  1145   79 79  360/  2     1020.0R
4NM E PORT CANAV 1100      82                N/A     1/ 8
SETTLEMENT PT GB 1200   83     130/  6/  8 1018.8R
$$